Location: Lafig�re
(44.4503°N, 4.0357°E)
Time: 14:51:59
(UTC+00:00)

Transit 2A Rocket - Pass Details

Date: 28 January 2021
Orbit: 594 x 908 km, 66.7° (Epoch: 06 March)

Event Time Altitude Azimuth Distance (km) Brightness Sun altitude
Rises 09:47:13 0° 176° (S) 3,357 9.4 20.8°
Reaches altitude 10° 09:50:08 10° 163° (SSE) 2,376 9.3 21.1°
Maximum altitude 09:54:27 24° 111° (ESE) 1,530 7.6 21.5°
Drops below altitude 10° 09:58:29 10° 58° (ENE) 2,219 7.5 21.9°
Sets 10:01:06 0° 44° (NE) 3,087 8.0 22.1°
